| time (UTC) | temp C | wind direction | speed KPH | gust KPH | rain 1hr cm | rain 24hr cm | rain mn cm | humidity % | barometer mb |
| 20260503033053 | 15 | 294 | 30.6 | 61.2 | 0.00 | 0.00 | 0.00 | 45 | 1016.2 |
| 20260503031543 | 14 | 0 | 0.0 | 1.6 | 0.00 | 0.00 | 0.00 | 39 | 1015.5 |
| 20260503030037 | 15 | 0 | 0.0 | 0.0 | 0.00 | 0.00 | 0.00 | 38 | 1015.2 |
| 20260503024540 | 16 | 0 | 0.0 | 0.0 | 0.00 | 0.00 | 0.00 | 37 | 1015.1 |
| 20260503023049 | 16 | 0 | 0.0 | 1.6 | 0.00 | 0.00 | 0.00 | 35 | 1015.0 |
| 20260503021537 | 17 | 0 | 0.0 | 0.0 | 0.00 | 0.00 | 0.00 | 34 | 1015.0 |
| 20260503020038 | 18 | 0 | 0.0 | 1.6 | 0.00 | 0.00 | 0.00 | 33 | 1015.0 |
| 20260503014544 | 18 | 0 | 0.0 | 3.2 | 0.00 | 0.00 | 0.00 | 33 | 1015.0 |
| 20260503013042 | 18 | 120 | 1.6 | 6.4 | 0.00 | 0.00 | 0.00 | 32 | 1015.1 |
| 20260503011554 | 19 | 172 | 0.0 | 4.8 | 0.00 | 0.00 | 0.00 | 32 | 1015.0 |
| 20260503010047 | 19 | 0 | 1.6 | 11.3 | 0.00 | 0.00 | 0.00 | 32 | 1015.2 |
| 20260503004537 | 18 | 0 | 6.4 | 14.5 | 0.00 | 0.00 | 0.00 | 33 | 1015.4 |
| 20260503003040 | 18 | 0 | 1.6 | 19.3 | 0.00 | 0.00 | 0.00 | 33 | 1015.5 |
| 20260503001537 | 18 | 192 | 0.0 | 4.8 | 0.00 | 0.00 | 0.00 | 32 | 1015.6 |
| 20260503000059 | 19 | 327 | 1.6 | 8.0 | 0.00 | 0.00 | 0.00 | 33 | 1015.8 |
| 20260502234544 | 19 | 101 | 0.0 | 6.4 | 0.00 | 0.00 | 0.00 | 32 | 1015.8 |
| 20260502233039 | 19 | 75 | 1.6 | 16.1 | 0.00 | 0.00 | 0.00 | 31 | 1015.9 |
| 20260502231546 | 19 | 130 | 1.6 | 12.9 | 0.00 | 0.00 | 0.00 | 33 | 1016.2 |
| 20260502230044 | 18 | 188 | 3.2 | 11.3 | 0.00 | 0.00 | 0.00 | 34 | 1016.3 |
| 20260502224537 | 18 | 0 | 1.6 | 8.0 | 0.00 | 0.00 | 0.00 | 35 | 1016.5 |
| 20260502223045 | 17 | 88 | 3.2 | 12.9 | 0.00 | 0.00 | 0.00 | 36 | 1016.7 |
| 20260502221539 | 18 | 0 | 1.6 | 6.4 | 0.00 | 0.00 | 0.00 | 36 | 1017.0 |
| 20260502220040 | 18 | 74 | 1.6 | 9.7 | 0.00 | 0.00 | 0.00 | 34 | 1017.1 |
| 20260502214538 | 18 | 312 | 4.8 | 20.9 | 0.00 | 0.00 | 0.00 | 34 | 1017.2 |
| 20260502213038 | 17 | 88 | 1.6 | 17.7 | 0.00 | 0.00 | 0.00 | 36 | 1017.4 |
| 20260502211551 | 17 | 221 | 4.8 | 19.3 | 0.00 | 0.00 | 0.00 | 35 | 1017.6 |
| 20260502210040 | 18 | 311 | 4.8 | 14.5 | 0.00 | 0.00 | 0.00 | 36 | 1017.8 |
| 20260502204538 | 18 | 33 | 6.4 | 16.1 | 0.00 | 0.00 | 0.00 | 35 | 1018.0 |
| 20260502203037 | 17 | 283 | 3.2 | 17.7 | 0.00 | 0.00 | 0.00 | 37 | 1018.1 |
| 20260502201537 | 17 | 17 | 4.8 | 14.5 | 0.00 | 0.00 | 0.00 | 39 | 1018.2 |
| 20260502200044 | 17 | 31 | 4.8 | 19.3 | 0.00 | 0.00 | 0.00 | 39 | 1018.5 |
| 20260502194536 | 17 | 22 | 6.4 | 20.9 | 0.00 | 0.00 | 0.00 | 38 | 1018.6 |
| 20260502193040 | 17 | 42 | 3.2 | 17.7 | 0.00 | 0.00 | 0.00 | 38 | 1018.6 |
| 20260502191538 | 17 | 60 | 1.6 | 19.3 | 0.00 | 0.00 | 0.00 | 37 | 1018.7 |
| 20260502190037 | 17 | 0 | 3.2 | 19.3 | 0.00 | 0.00 | 0.00 | 36 | 1018.9 |
| 20260502184538 | 18 | 0 | 4.8 | 22.5 | 0.00 | 0.00 | 0.00 | 34 | 1019.0 |
| 20260502183037 | 17 | 34 | 1.6 | 22.5 | 0.00 | 0.00 | 0.00 | 36 | 1019.1 |
| 20260502181536 | 17 | 49 | 6.4 | 19.3 | 0.00 | 0.00 | 0.00 | 37 | 1019.4 |
| 20260502163040 | 16 | 11 | 3.2 | 24.1 | 0.00 | 0.00 | 0.00 | 40 | 1019.5 |
| 20260502161539 | 16 | 63 | 4.8 | 22.5 | 0.00 | 0.00 | 0.00 | 39 | 1019.6 |
| 20260502151548 | 15 | 0 | 8.0 | 22.5 | 0.00 | 0.00 | 0.00 | 41 | 1019.6 |
| 20260502123054 | 8 | 40 | 4.8 | 12.9 | 0.00 | 0.00 | 0.00 | 55 | 1018.2 |
| 20260502121541 | 8 | 36 | 3.2 | 12.9 | 0.00 | 0.00 | 0.00 | 54 | 1017.9 |
| 20260502114537 | 8 | 39 | 4.8 | 9.7 | 0.00 | 0.00 | 0.00 | 54 | 1017.7 |
| 20260502113045 | 7 | 17 | 0.0 | 4.8 | 0.00 | 0.00 | 0.00 | 54 | 1017.5 |
| 20260502111547 | 8 | 0 | 0.0 | 4.8 | 0.00 | 0.00 | 0.00 | 50 | 1017.3 |
| 20260502110043 | 8 | 0 | 0.0 | 4.8 | 0.00 | 0.00 | 0.00 | 48 | 1017.0 |
| 20260502104541 | 9 | 335 | 6.4 | 16.1 | 0.00 | 0.00 | 0.00 | 46 | 1016.7 |
| 20260502103037 | 9 | 286 | 6.4 | 12.9 | 0.00 | 0.00 | 0.00 | 45 | 1016.5 |
| 20260502101538 | 10 | 0 | 1.6 | 17.7 | 0.00 | 0.00 | 0.00 | 44 | 1016.4 |
| 20260502070041 | 11 | 0 | 0.0 | 4.8 | 0.00 | 0.00 | 0.00 | 34 | 1015.4 |
| 20260502064538 | 16 | 269 | 8.0 | 24.1 | 0.00 | 0.00 | 0.00 | 29 | 1015.1 |
| 20260502063055 | 14 | 232 | 8.0 | 24.1 | 0.00 | 0.00 | 0.00 | 31 | 1015.1 |
| 20260502061542 | 12 | 0 | 0.0 | 1.6 | 0.00 | 0.00 | 0.00 | 33 | 1015.0 |
| 20260502060038 | 12 | 310 | 0.0 | 4.8 | 0.00 | 0.00 | 0.00 | 33 | 1015.0 |
| 20260502054536 | 13 | 310 | 6.4 | 25.7 | 0.00 | 0.00 | 0.00 | 31 | 1014.8 |
| 20260502053050 | 13 | 309 | 16.1 | 25.7 | 0.00 | 0.00 | 0.00 | 32 | 1014.6 |
| 20260502051545 | 13 | 328 | 16.1 | 25.7 | 0.00 | 0.00 | 0.00 | 31 | 1014.7 |
| 20260502050042 | 12 | 311 | 22.5 | 27.4 | 0.00 | 0.00 | 0.00 | 30 | 1014.7 |
| 20260502044539 | 14 | 308 | 17.7 | 25.7 | 0.00 | 0.00 | 0.00 | 28 | 1014.6 |
| 20260502043040 | 15 | 309 | 19.3 | 25.7 | 0.00 | 0.00 | 0.00 | 28 | 1014.6 |
| 20260502041539 | 14 | 302 | 19.3 | 29.0 | 0.00 | 0.00 | 0.00 | 27 | 1014.6 |
| 20260502040039 | 13 | 291 | 12.9 | 19.3 | 0.00 | 0.00 | 0.00 | 26 | 1014.6 |
| 20260502034538 | 15 | 284 | 16.1 | 20.9 | 0.00 | 0.00 | 0.00 | 23 | 1014.5 |